| time (UTC) | temp F | wind direction | speed MPH | gust MPH | rain 1hr in | rain 24hr in | rain mn in | humidity % | barometer mb |
| 20260506202020 | 73 | 23 | 7.0 | 13.0 | 0.00 | 0.00 | 0.00 | 49 | 1018.3 |
| 20260506201520 | 73 | 246 | 1.0 | 8.0 | 0.00 | 0.00 | 0.00 | 50 | 1018.4 |
| 20260506201021 | 73 | 168 | 3.0 | 10.0 | 0.00 | 0.00 | 0.00 | 50 | 1018.4 |
| 20260506200520 | 73 | 103 | 4.0 | 10.0 | 0.00 | 0.00 | 0.00 | 51 | 1018.5 |
| 20260506200020 | 73 | 47 | 3.0 | 6.0 | 0.00 | 0.00 | 0.00 | 51 | 1018.6 |
| 20260506195059 | 72 | 23 | 5.0 | 10.0 | 0.00 | 0.00 | 0.00 | 52 | 1018.7 |
| 20260506194558 | 72 | 284 | 7.0 | 10.0 | 0.00 | 0.00 | 0.00 | 50 | 1018.8 |
| 20260506194058 | 72 | 290 | 5.0 | 10.0 | 0.00 | 0.00 | 0.00 | 51 | 1018.8 |
| 20260506193558 | 72 | 0 | 0.0 | 7.0 | 0.00 | 0.00 | 0.00 | 51 | 1018.9 |
| 20260506193058 | 72 | 42 | 3.0 | 7.0 | 0.00 | 0.00 | 0.00 | 51 | 1019.0 |
| 20260506192558 | 71 | 327 | 1.0 | 7.0 | 0.00 | 0.00 | 0.00 | 52 | 1019.1 |
| 20260506192058 | 71 | 76 | 4.0 | 7.0 | 0.00 | 0.00 | 0.00 | 53 | 1019.2 |
| 20260506191558 | 71 | 88 | 2.0 | 8.0 | 0.00 | 0.00 | 0.00 | 54 | 1019.3 |
| 20260506191058 | 70 | 322 | 4.0 | 8.0 | 0.00 | 0.00 | 0.00 | 54 | 1019.4 |
| 20260506190558 | 70 | 270 | 4.0 | 7.0 | 0.00 | 0.00 | 0.00 | 55 | 1019.4 |
| 20260506190059 | 70 | 319 | 3.0 | 7.0 | 0.00 | 0.00 | 0.00 | 55 | 1019.5 |
| 20260506185558 | 70 | 344 | 2.0 | 7.0 | 0.00 | 0.00 | 0.00 | 57 | 1019.6 |
| 20260506185058 | 70 | 20 | 3.0 | 7.0 | 0.00 | 0.00 | 0.00 | 57 | 1019.6 |
| 20260506184559 | 69 | 247 | 2.0 | 7.0 | 0.00 | 0.00 | 0.00 | 55 | 1019.7 |
| 20260506184059 | 69 | 288 | 4.0 | 8.0 | 0.00 | 0.00 | 0.00 | 57 | 1019.8 |
| 20260506183558 | 69 | 300 | 2.0 | 13.0 | 0.00 | 0.00 | 0.00 | 57 | 1019.8 |
| 20260506183100 | 69 | 294 | 8.0 | 13.0 | 0.00 | 0.00 | 0.00 | 58 | 1019.8 |
| 20260506182558 | 69 | 244 | 1.0 | 7.0 | 0.00 | 0.00 | 0.00 | 59 | 1019.9 |
| 20260506182058 | 68 | 277 | 1.0 | 7.0 | 0.00 | 0.00 | 0.00 | 59 | 1020.1 |
| 20260506181558 | 68 | 309 | 1.0 | 5.0 | 0.00 | 0.00 | 0.00 | 60 | 1020.1 |
| 20260506181058 | 68 | 32 | 2.0 | 11.0 | 0.00 | 0.00 | 0.00 | 60 | 1020.2 |
| 20260506180558 | 68 | 321 | 5.0 | 11.0 | 0.00 | 0.00 | 0.00 | 61 | 1020.3 |
| 20260506180059 | 67 | 269 | 1.0 | 9.0 | 0.00 | 0.00 | 0.00 | 62 | 1020.3 |
| 20260506175558 | 67 | 328 | 5.0 | 9.0 | 0.00 | 0.00 | 0.00 | 61 | 1020.4 |
| 20260506175058 | 67 | 253 | 4.0 | 9.0 | 0.00 | 0.00 | 0.00 | 62 | 1020.4 |
| 20260506174559 | 66 | 14 | 1.0 | 8.0 | 0.00 | 0.00 | 0.00 | 62 | 1020.5 |
| 20260506174058 | 66 | 260 | 3.0 | 9.0 | 0.00 | 0.00 | 0.00 | 63 | 1020.5 |
| 20260506173558 | 66 | 277 | 3.0 | 9.0 | 0.00 | 0.00 | 0.00 | 64 | 1020.6 |
| 20260506173058 | 66 | 310 | 5.0 | 9.0 | 0.00 | 0.00 | 0.00 | 65 | 1020.6 |
| 20260506172559 | 65 | 169 | 1.0 | 8.0 | 0.00 | 0.00 | 0.00 | 65 | 1020.7 |
| 20260506172058 | 65 | 317 | 2.0 | 11.0 | 0.00 | 0.00 | 0.00 | 65 | 1020.8 |
| 20260506171058 | 65 | 316 | 3.0 | 7.0 | 0.00 | 0.00 | 0.00 | 66 | 1020.7 |
| 20260506170558 | 65 | 0 | 0.0 | 9.0 | 0.00 | 0.00 | 0.00 | 66 | 1020.7 |
| 20260506170059 | 65 | 308 | 4.0 | 9.0 | 0.00 | 0.00 | 0.00 | 67 | 1020.8 |
| 20260506165558 | 64 | 265 | 2.0 | 8.0 | 0.00 | 0.00 | 0.00 | 67 | 1020.8 |
| 20260506165058 | 64 | 277 | 1.0 | 8.0 | 0.00 | 0.00 | 0.00 | 68 | 1020.8 |
| 20260506164507 | 64 | 295 | 3.0 | 9.0 | 0.00 | 0.00 | 0.00 | 68 | 1020.8 |
| 20260506164006 | 64 | 292 | 4.0 | 8.0 | 0.00 | 0.00 | 0.00 | 69 | 1020.8 |
| 20260506163506 | 63 | 42 | 2.0 | 8.0 | 0.00 | 0.00 | 0.00 | 69 | 1020.9 |
| 20260506163006 | 63 | 18 | 4.0 | 7.0 | 0.00 | 0.00 | 0.00 | 70 | 1020.9 |
| 20260506162506 | 63 | 21 | 2.0 | 6.0 | 0.00 | 0.00 | 0.00 | 71 | 1021.1 |
| 20260506162007 | 63 | 232 | 2.0 | 6.0 | 0.00 | 0.00 | 0.00 | 70 | 1021.1 |
| 20260506161506 | 63 | 344 | 1.0 | 5.0 | 0.00 | 0.00 | 0.00 | 70 | 1021.1 |
| 20260506160938 | 63 | 349 | 2.0 | 5.0 | 0.00 | 0.00 | 0.00 | 71 | 1021.1 |
| 20260506160438 | 62 | 356 | 1.0 | 5.0 | 0.00 | 0.00 | 0.00 | 72 | 1021.2 |
| 20260506155938 | 62 | 316 | 1.0 | 5.0 | 0.00 | 0.00 | 0.00 | 72 | 1021.2 |
| 20260506155438 | 61 | 0 | 0.0 | 6.0 | 0.00 | 0.00 | 0.00 | 73 | 1021.2 |
| 20260506154938 | 61 | 267 | 3.0 | 7.0 | 0.00 | 0.00 | 0.00 | 73 | 1021.2 |
| 20260506154438 | 61 | 304 | 2.0 | 7.0 | 0.00 | 0.00 | 0.00 | 74 | 1021.2 |
| 20260506153938 | 61 | 329 | 3.0 | 7.0 | 0.00 | 0.00 | 0.00 | 74 | 1021.2 |
| 20260506153438 | 60 | 291 | 3.0 | 7.0 | 0.00 | 0.00 | 0.00 | 74 | 1021.2 |
| 20260506152939 | 60 | 293 | 3.0 | 7.0 | 0.00 | 0.00 | 0.00 | 75 | 1021.2 |
| 20260506151938 | 60 | 304 | 4.0 | 7.0 | 0.00 | 0.00 | 0.00 | 75 | 1021.3 |
| 20260506151404 | 60 | 297 | 4.0 | 8.0 | 0.00 | 0.00 | 0.00 | 75 | 1021.3 |
| 20260506150404 | 59 | 268 | 6.0 | 8.0 | 0.00 | 0.00 | 0.00 | 75 | 1021.4 |
| 20260506145904 | 59 | 308 | 3.0 | 8.0 | 0.00 | 0.00 | 0.00 | 76 | 1021.3 |
| 20260506145405 | 59 | 310 | 3.0 | 6.0 | 0.00 | 0.00 | 0.00 | 77 | 1021.4 |
| 20260506144904 | 59 | 310 | 1.0 | 6.0 | 0.00 | 0.00 | 0.00 | 78 | 1021.2 |
| 20260506144404 | 58 | 0 | 0.0 | 0.0 | 0.00 | 0.00 | 0.00 | 79 | 1021.2 |
| 20260506143404 | 57 | 0 | 0.0 | 0.0 | 0.00 | 0.00 | 0.00 | 80 | 1021.3 |
| 20260506142905 | 57 | 0 | 0.0 | 0.0 | 0.00 | 0.00 | 0.00 | 80 | 1021.3 |
| 20260506142404 | 57 | 0 | 0.0 | 0.0 | 0.00 | 0.00 | 0.00 | 81 | 1021.2 |
| 20260506141904 | 57 | 0 | 0.0 | 0.0 | 0.00 | 0.00 | 0.00 | 80 | 1021.1 |
| 20260506141405 | 57 | 0 | 0.0 | 0.0 | 0.00 | 0.00 | 0.00 | 81 | 1021.1 |
| 20260506140404 | 56 | 0 | 0.0 | 0.0 | 0.00 | 0.00 | 0.00 | 83 | 1020.9 |
| 20260506135904 | 55 | 0 | 0.0 | 0.0 | 0.00 | 0.00 | 0.00 | 84 | 1020.8 |
| 20260506135404 | 55 | 0 | 0.0 | 0.0 | 0.00 | 0.00 | 0.00 | 84 | 1020.7 |
| 20260506134904 | 54 | 0 | 0.0 | 0.0 | 0.00 | 0.00 | 0.00 | 85 | 1020.6 |
| 20260506134404 | 54 | 0 | 0.0 | 0.0 | 0.00 | 0.00 | 0.00 | 84 | 1020.5 |
| 20260506133405 | 53 | 0 | 0.0 | 1.0 | 0.00 | 0.00 | 0.00 | 84 | 1020.5 |
| 20260506132904 | 53 | 0 | 0.0 | 5.0 | 0.00 | 0.00 | 0.00 | 84 | 1020.4 |
| 20260506132405 | 53 | 100 | 2.0 | 5.0 | 0.00 | 0.00 | 0.00 | 83 | 1020.3 |
| 20260506131904 | 53 | 120 | 1.0 | 3.0 | 0.00 | 0.00 | 0.00 | 84 | 1020.3 |
| 20260506131404 | 53 | 118 | 1.0 | 3.0 | 0.00 | 0.00 | 0.00 | 83 | 1020.2 |
| 20260506130404 | 54 | 0 | 0.0 | 4.0 | 0.00 | 0.00 | 0.00 | 83 | 1020.2 |
| 20260506125905 | 54 | 0 | 0.0 | 4.0 | 0.00 | 0.00 | 0.00 | 83 | 1020.3 |
| 20260506125404 | 54 | 196 | 1.0 | 5.0 | 0.00 | 0.00 | 0.00 | 84 | 1020.2 |
| 20260506124904 | 54 | 218 | 2.0 | 6.0 | 0.00 | 0.00 | 0.00 | 84 | 1020.0 |
| 20260506124404 | 54 | 225 | 4.0 | 6.0 | 0.00 | 0.00 | 0.00 | 84 | 1020.0 |
| 20260506123645 | 53 | 237 | 4.0 | 6.0 | 0.00 | 0.00 | 0.00 | 84 | 1019.9 |
| 20260506123145 | 53 | 250 | 3.0 | 6.0 | 0.00 | 0.00 | 0.00 | 83 | 1019.9 |
| 20260506122644 | 53 | 242 | 4.0 | 6.0 | 0.00 | 0.00 | 0.00 | 83 | 1019.9 |
| 20260506122145 | 54 | 249 | 3.0 | 4.0 | 0.00 | 0.00 | 0.00 | 82 | 1019.8 |
| 20260506121644 | 54 | 248 | 3.0 | 4.0 | 0.00 | 0.00 | 0.00 | 81 | 1019.8 |
| 20260506121144 | 54 | 248 | 2.0 | 4.0 | 0.00 | 0.00 | 0.00 | 80 | 1019.8 |
| 20260506120012 | 55 | 265 | 3.0 | 8.0 | 0.00 | 0.00 | 0.00 | 80 | 1019.8 |
| 20260506115512 | 55 | 275 | 6.0 | 8.0 | 0.00 | 0.00 | 0.00 | 80 | 1019.8 |
| 20260506115014 | 55 | 268 | 6.0 | 9.0 | 0.00 | 0.00 | 0.00 | 79 | 1019.8 |
| 20260506114012 | 55 | 248 | 8.0 | 9.0 | 0.00 | 0.00 | 0.00 | 80 | 1019.8 |
| 20260506113512 | 55 | 250 | 6.0 | 8.0 | 0.00 | 0.00 | 0.00 | 80 | 1019.9 |
| 20260506113013 | 55 | 247 | 6.0 | 9.0 | 0.00 | 0.00 | 0.00 | 79 | 1019.8 |
| 20260506112512 | 55 | 239 | 5.0 | 10.0 | 0.00 | 0.00 | 0.00 | 79 | 1019.8 |
| 20260506112012 | 55 | 268 | 8.0 | 10.0 | 0.00 | 0.00 | 0.00 | 79 | 1019.7 |
| 20260506111514 | 55 | 256 | 7.0 | 8.0 | 0.00 | 0.00 | 0.00 | 79 | 1019.6 |
| 20260506111012 | 55 | 254 | 5.0 | 7.0 | 0.00 | 0.00 | 0.00 | 79 | 1019.7 |
| 20260506110512 | 55 | 266 | 6.0 | 7.0 | 0.00 | 0.00 | 0.00 | 79 | 1019.7 |
| 20260506105933 | 55 | 255 | 6.0 | 8.0 | 0.00 | 0.00 | 0.00 | 79 | 1019.7 |
| 20260506105432 | 55 | 241 | 5.0 | 8.0 | 0.00 | 0.00 | 0.00 | 79 | 1019.7 |
| 20260506104822 | 55 | 239 | 5.0 | 7.0 | 0.00 | 0.00 | 0.00 | 79 | 1019.5 |
| 20260506104322 | 54 | 245 | 3.0 | 7.0 | 0.00 | 0.00 | 0.00 | 79 | 1019.6 |
| 20260506103822 | 55 | 256 | 3.0 | 9.0 | 0.00 | 0.00 | 0.00 | 79 | 1019.5 |
| 20260506103321 | 54 | 248 | 6.0 | 9.0 | 0.00 | 0.00 | 0.00 | 79 | 1019.3 |
| 20260506102821 | 54 | 241 | 6.0 | 9.0 | 0.00 | 0.00 | 0.00 | 80 | 1019.3 |
| 20260506102322 | 53 | 243 | 7.0 | 9.0 | 0.00 | 0.00 | 0.00 | 81 | 1019.4 |
| 20260506101821 | 53 | 243 | 5.0 | 8.0 | 0.00 | 0.00 | 0.00 | 82 | 1019.3 |
| 20260506101321 | 52 | 239 | 4.0 | 7.0 | 0.00 | 0.00 | 0.00 | 81 | 1019.3 |
| 20260506100822 | 52 | 245 | 2.0 | 5.0 | 0.00 | 0.00 | 0.00 | 80 | 1019.2 |
| 20260506100322 | 52 | 254 | 2.0 | 7.0 | 0.00 | 0.00 | 0.00 | 80 | 1019.2 |
| 20260506095821 | 52 | 223 | 5.0 | 7.0 | 0.00 | 0.00 | 0.00 | 81 | 1019.1 |
| 20260506095055 | 52 | 259 | 3.0 | 7.0 | 0.00 | 0.00 | 0.00 | 81 | 1019.2 |
| 20260506094554 | 51 | 249 | 5.0 | 10.0 | 0.00 | 0.00 | 0.00 | 82 | 1019.0 |
| 20260506094054 | 51 | 312 | 6.0 | 10.0 | 0.00 | 0.00 | 0.00 | 80 | 1019.1 |
| 20260506093554 | 52 | 229 | 1.0 | 3.0 | 0.00 | 0.00 | 0.00 | 79 | 1019.0 |
| 20260506093058 | 53 | 229 | 1.0 | 4.0 | 0.00 | 0.00 | 0.00 | 79 | 1019.0 |
| 20260506092554 | 53 | 229 | 3.0 | 4.0 | 0.00 | 0.00 | 0.00 | 79 | 1018.9 |
| 20260506092054 | 53 | 231 | 2.0 | 4.0 | 0.00 | 0.00 | 0.00 | 80 | 1018.9 |
| 20260506091554 | 53 | 286 | 2.0 | 3.0 | 0.00 | 0.00 | 0.00 | 81 | 1018.9 |
| 20260506091054 | 53 | 327 | 2.0 | 3.0 | 0.00 | 0.00 | 0.00 | 82 | 1018.9 |
| 20260506090554 | 52 | 0 | 0.0 | 0.0 | 0.00 | 0.00 | 0.00 | 82 | 1018.9 |
| 20260506090054 | 52 | 0 | 0.0 | 0.0 | 0.00 | 0.00 | 0.00 | 81 | 1018.9 |
| 20260506085554 | 52 | 0 | 0.0 | 0.0 | 0.00 | 0.00 | 0.00 | 82 | 1018.9 |
| 20260506085054 | 51 | 0 | 0.0 | 0.0 | 0.00 | 0.00 | 0.00 | 81 | 1018.9 |
| 20260506084554 | 52 | 0 | 0.0 | 0.0 | 0.00 | 0.00 | 0.00 | 80 | 1018.9 |
| 20260506083624 | 52 | 0 | 0.0 | 0.0 | 0.00 | 0.00 | 0.00 | 80 | 1018.8 |
| 20260506083124 | 52 | 0 | 0.0 | 0.0 | 0.00 | 0.00 | 0.00 | 80 | 1018.7 |
| 20260506082624 | 53 | 0 | 0.0 | 0.0 | 0.00 | 0.00 | 0.00 | 81 | 1018.7 |
| 20260506082124 | 53 | 0 | 0.0 | 2.0 | 0.00 | 0.00 | 0.00 | 80 | 1018.8 |
| 20260506081625 | 53 | 0 | 0.0 | 2.0 | 0.00 | 0.00 | 0.00 | 80 | 1018.7 |
| 20260506081124 | 53 | 187 | 1.0 | 2.0 | 0.00 | 0.00 | 0.00 | 80 | 1018.7 |
| 20260506080628 | 53 | 187 | 1.0 | 2.0 | 0.00 | 0.00 | 0.00 | 81 | 1018.7 |
| 20260506080124 | 53 | 0 | 0.0 | 0.0 | 0.00 | 0.00 | 0.00 | 81 | 1018.7 |
| 20260506073124 | 53 | 0 | 0.0 | 2.0 | 0.00 | 0.00 | 0.00 | 80 | 1018.6 |
| 20260506072624 | 53 | 187 | 1.0 | 2.0 | 0.00 | 0.00 | 0.00 | 79 | 1018.6 |
| 20260506072124 | 54 | 0 | 0.0 | 3.0 | 0.00 | 0.00 | 0.00 | 78 | 1018.6 |
| 20260506071625 | 54 | 186 | 1.0 | 3.0 | 0.00 | 0.00 | 0.00 | 78 | 1018.5 |
| 20260506071124 | 54 | 186 | 2.0 | 5.0 | 0.00 | 0.00 | 0.00 | 78 | 1018.4 |
| 20260506070625 | 54 | 187 | 2.0 | 5.0 | 0.00 | 0.00 | 0.00 | 79 | 1018.3 |
| 20260506070124 | 54 | 185 | 2.0 | 4.0 | 0.00 | 0.00 | 0.00 | 79 | 1018.3 |
| 20260506062124 | 55 | 199 | 1.0 | 3.0 | 0.00 | 0.00 | 0.00 | 79 | 1017.7 |
| 20260506061209 | 55 | 0 | 0.0 | 2.0 | 0.00 | 0.00 | 0.00 | 78 | 1017.6 |
| 20260506060709 | 55 | 199 | 1.0 | 4.0 | 0.00 | 0.00 | 0.00 | 78 | 1017.6 |
| 20260506051209 | 59 | 0 | 0.0 | 0.0 | 0.00 | 0.00 | 0.00 | 73 | 1017.5 |
| 20260506050708 | 59 | 0 | 0.0 | 0.0 | 0.00 | 0.00 | 0.00 | 73 | 1017.5 |
| 20260506050208 | 59 | 0 | 0.0 | 0.0 | 0.00 | 0.00 | 0.00 | 72 | 1017.4 |
| 20260506044249 | 61 | 0 | 0.0 | 2.0 | 0.00 | 0.00 | 0.00 | 70 | 1017.2 |
| 20260506043748 | 61 | 0 | 0.0 | 2.0 | 0.00 | 0.00 | 0.00 | 68 | 1017.2 |
| 20260506043210 | 61 | 201 | 1.0 | 5.0 | 0.00 | 0.00 | 0.00 | 66 | 1017.1 |
| 20260506042708 | 61 | 204 | 2.0 | 6.0 | 0.00 | 0.00 | 0.00 | 66 | 1017.0 |
| 20260506042209 | 61 | 212 | 4.0 | 6.0 | 0.00 | 0.00 | 0.00 | 67 | 1016.9 |
| 20260506041708 | 61 | 212 | 3.0 | 5.0 | 0.00 | 0.00 | 0.00 | 67 | 1016.9 |
| 20260506041207 | 61 | 206 | 3.0 | 5.0 | 0.00 | 0.00 | 0.00 | 68 | 1016.8 |
| 20260506040708 | 61 | 214 | 3.0 | 5.0 | 0.00 | 0.00 | 0.00 | 68 | 1016.8 |
| 20260506040208 | 61 | 227 | 2.0 | 5.0 | 0.00 | 0.00 | 0.00 | 69 | 1016.7 |
| 20260506035708 | 61 | 217 | 2.0 | 3.0 | 0.00 | 0.00 | 0.00 | 71 | 1016.5 |
| 20260506035208 | 61 | 0 | 0.0 | 1.0 | 0.00 | 0.00 | 0.00 | 72 | 1016.5 |
| 20260506034708 | 61 | 0 | 0.0 | 1.0 | 0.00 | 0.00 | 0.00 | 72 | 1016.5 |
| 20260506034209 | 61 | 0 | 0.0 | 2.0 | 0.00 | 0.00 | 0.00 | 72 | 1016.4 |
| 20260506033707 | 61 | 0 | 0.0 | 3.0 | 0.00 | 0.00 | 0.00 | 72 | 1016.4 |
| 20260506033208 | 62 | 182 | 1.0 | 4.0 | 0.00 | 0.00 | 0.00 | 73 | 1016.4 |
| 20260506032708 | 62 | 182 | 2.0 | 4.0 | 0.00 | 0.00 | 0.00 | 73 | 1016.2 |
| 20260506032207 | 62 | 177 | 1.0 | 4.0 | 0.00 | 0.00 | 0.00 | 73 | 1016.1 |
| 20260506031707 | 62 | 96 | 1.0 | 2.0 | 0.00 | 0.00 | 0.00 | 73 | 1016.0 |
| 20260506031101 | 62 | 0 | 0.0 | 2.0 | 0.00 | 0.00 | 0.00 | 72 | 1016.0 |
| 20260506030428 | 62 | 0 | 0.0 | 3.0 | 0.00 | 0.00 | 0.00 | 71 | 1015.9 |
| 20260506025929 | 63 | 95 | 1.0 | 3.0 | 0.00 | 0.00 | 0.00 | 71 | 1015.8 |
| 20260506024123 | 63 | 0 | 0.0 | 2.0 | 0.00 | 0.00 | 0.00 | 68 | 1015.6 |
| 20260506023623 | 63 | 0 | 0.0 | 2.0 | 0.00 | 0.00 | 0.00 | 68 | 1015.6 |
| 20260506023123 | 63 | 0 | 0.0 | 2.0 | 0.00 | 0.00 | 0.00 | 67 | 1015.5 |
| 20260506022623 | 63 | 0 | 0.0 | 2.0 | 0.00 | 0.00 | 0.00 | 68 | 1015.4 |
| 20260506022123 | 63 | 0 | 0.0 | 1.0 | 0.00 | 0.00 | 0.00 | 69 | 1015.4 |
| 20260506021623 | 63 | 0 | 0.0 | 2.0 | 0.00 | 0.00 | 0.00 | 69 | 1015.4 |
| 20260506021123 | 63 | 0 | 0.0 | 3.0 | 0.00 | 0.00 | 0.00 | 69 | 1015.4 |
| 20260506020623 | 63 | 0 | 0.0 | 3.0 | 0.00 | 0.00 | 0.00 | 70 | 1015.3 |
| 20260506020123 | 63 | 0 | 0.0 | 4.0 | 0.00 | 0.00 | 0.00 | 70 | 1015.3 |
| 20260506015623 | 63 | 108 | 2.0 | 6.0 | 0.00 | 0.00 | 0.00 | 70 | 1015.3 |
| 20260506015123 | 63 | 98 | 1.0 | 6.0 | 0.00 | 0.00 | 0.00 | 69 | 1015.3 |
| 20260506014623 | 63 | 102 | 3.0 | 8.0 | 0.00 | 0.00 | 0.00 | 69 | 1015.2 |
| 20260506014123 | 64 | 100 | 4.0 | 8.0 | 0.00 | 0.00 | 0.00 | 68 | 1015.2 |
| 20260506013623 | 64 | 103 | 4.0 | 9.0 | 0.00 | 0.00 | 0.00 | 68 | 1015.2 |
| 20260506013123 | 64 | 84 | 2.0 | 9.0 | 0.00 | 0.00 | 0.00 | 68 | 1015.2 |
| 20260506012524 | 64 | 94 | 4.0 | 8.0 | 0.00 | 0.00 | 0.00 | 67 | 1015.1 |
| 20260506012024 | 65 | 86 | 3.0 | 7.0 | 0.00 | 0.00 | 0.00 | 66 | 1015.1 |
| 20260506011017 | 66 | 112 | 2.0 | 4.0 | 0.00 | 0.00 | 0.00 | 60 | 1015.0 |
| 20260506010518 | 66 | 187 | 1.0 | 4.0 | 0.00 | 0.00 | 0.00 | 57 | 1015.0 |
| 20260506010016 | 66 | 240 | 2.0 | 4.0 | 0.00 | 0.00 | 0.00 | 56 | 1015.0 |
| 20260506005517 | 66 | 255 | 2.0 | 8.0 | 0.00 | 0.00 | 0.00 | 56 | 1015.0 |
| 20260506005016 | 66 | 220 | 4.0 | 8.0 | 0.00 | 0.00 | 0.00 | 55 | 1015.0 |
| 20260506004517 | 67 | 242 | 4.0 | 8.0 | 0.00 | 0.00 | 0.00 | 55 | 1015.0 |
| 20260506004016 | 67 | 257 | 4.0 | 8.0 | 0.00 | 0.00 | 0.00 | 55 | 1015.0 |
| 20260506003517 | 67 | 282 | 4.0 | 8.0 | 0.00 | 0.00 | 0.00 | 55 | 1015.0 |
| 20260506003017 | 67 | 286 | 5.0 | 7.0 | 0.00 | 0.00 | 0.00 | 56 | 1015.0 |
| 20260506002516 | 66 | 254 | 3.0 | 7.0 | 0.00 | 0.00 | 0.00 | 56 | 1014.9 |
| 20260506002016 | 67 | 233 | 3.0 | 8.0 | 0.00 | 0.00 | 0.00 | 56 | 1014.9 |
| 20260506001516 | 67 | 273 | 5.0 | 8.0 | 0.00 | 0.00 | 0.00 | 57 | 1015.0 |
| 20260506001016 | 66 | 304 | 2.0 | 4.0 | 0.00 | 0.00 | 0.00 | 58 | 1014.9 |
| 20260506000516 | 66 | 331 | 2.0 | 5.0 | 0.00 | 0.00 | 0.00 | 58 | 1014.8 |
| 20260506000016 | 66 | 321 | 3.0 | 7.0 | 0.00 | 0.00 | 0.00 | 58 | 1014.9 |
| 20260505235516 | 66 | 312 | 3.0 | 7.0 | 0.00 | 0.00 | 0.00 | 57 | 1014.9 |
| 20260505235017 | 66 | 0 | 0.0 | 4.0 | 0.00 | 0.00 | 0.00 | 56 | 1014.9 |
| 20260505234516 | 66 | 355 | 1.0 | 3.0 | 0.00 | 0.00 | 0.00 | 57 | 1014.9 |
| 20260505234016 | 66 | 0 | 0.0 | 2.0 | 0.00 | 0.00 | 0.00 | 58 | 1014.9 |
| 20260505233517 | 66 | 0 | 0.0 | 5.0 | 0.00 | 0.00 | 0.00 | 58 | 1014.9 |
| 20260505233016 | 65 | 142 | 2.0 | 5.0 | 0.00 | 0.00 | 0.00 | 58 | 1015.0 |
| 20260505232516 | 65 | 0 | 0.0 | 4.0 | 0.00 | 0.00 | 0.00 | 58 | 1015.0 |
| 20260505232016 | 65 | 227 | 1.0 | 5.0 | 0.00 | 0.00 | 0.00 | 58 | 1015.0 |
| 20260505231517 | 65 | 231 | 3.0 | 5.0 | 0.00 | 0.00 | 0.00 | 58 | 1015.1 |
| 20260505230823 | 65 | 295 | 2.0 | 5.0 | 0.00 | 0.00 | 0.00 | 59 | 1015.2 |
| 20260505230325 | 65 | 295 | 2.0 | 7.0 | 0.00 | 0.00 | 0.00 | 58 | 1015.3 |
| 20260505225823 | 65 | 300 | 2.0 | 9.0 | 0.00 | 0.00 | 0.00 | 58 | 1015.3 |
| 20260505225324 | 65 | 266 | 4.0 | 9.0 | 0.00 | 0.00 | 0.00 | 57 | 1015.4 |
| 20260505224824 | 65 | 273 | 5.0 | 8.0 | 0.00 | 0.00 | 0.00 | 57 | 1015.3 |
| 20260505224323 | 65 | 287 | 4.0 | 8.0 | 0.00 | 0.00 | 0.00 | 57 | 1015.3 |
| 20260505223823 | 66 | 33 | 2.0 | 8.0 | 0.00 | 0.00 | 0.00 | 56 | 1015.3 |
| 20260505223324 | 66 | 269 | 5.0 | 8.0 | 0.00 | 0.00 | 0.00 | 57 | 1015.3 |
| 20260505222824 | 66 | 0 | 0.0 | 8.0 | 0.00 | 0.00 | 0.00 | 58 | 1015.4 |
| 20260505222324 | 65 | 302 | 2.0 | 5.0 | 0.00 | 0.00 | 0.00 | 58 | 1015.5 |
| 20260505221823 | 65 | 214 | 2.0 | 6.0 | 0.00 | 0.00 | 0.00 | 58 | 1015.5 |
| 20260505221324 | 65 | 179 | 1.0 | 6.0 | 0.00 | 0.00 | 0.00 | 57 | 1015.5 |
| 20260505220823 | 66 | 138 | 3.0 | 6.0 | 0.00 | 0.00 | 0.00 | 57 | 1015.6 |
| 20260505220324 | 66 | 151 | 3.0 | 6.0 | 0.00 | 0.00 | 0.00 | 58 | 1015.6 |
| 20260505215824 | 66 | 197 | 1.0 | 7.0 | 0.00 | 0.00 | 0.00 | 59 | 1015.7 |
| 20260505215324 | 65 | 158 | 4.0 | 7.0 | 0.00 | 0.00 | 0.00 | 59 | 1015.8 |
| 20260505214823 | 65 | 108 | 3.0 | 6.0 | 0.00 | 0.00 | 0.00 | 61 | 1015.9 |
| 20260505214323 | 64 | 193 | 1.0 | 6.0 | 0.00 | 0.00 | 0.00 | 62 | 1016.1 |
| 20260505213824 | 64 | 237 | 2.0 | 6.0 | 0.00 | 0.00 | 0.00 | 61 | 1016.2 |
| 20260505212958 | 63 | 192 | 4.0 | 7.0 | 0.00 | 0.00 | 0.00 | 64 | 1016.3 |
| 20260505212458 | 63 | 210 | 4.0 | 9.0 | 0.00 | 0.00 | 0.00 | 64 | 1016.4 |
| 20260505211959 | 63 | 189 | 4.0 | 9.0 | 0.00 | 0.00 | 0.00 | 64 | 1016.5 |
| 20260505211458 | 63 | 218 | 4.0 | 7.0 | 0.00 | 0.00 | 0.00 | 65 | 1016.5 |
| 20260505210959 | 63 | 153 | 4.0 | 7.0 | 0.00 | 0.00 | 0.00 | 65 | 1016.6 |
| 20260505210020 | 62 | 170 | 1.0 | 6.0 | 0.00 | 0.00 | 0.00 | 66 | 1016.7 |
| 20260505205117 | 62 | 188 | 2.0 | 5.0 | 0.00 | 0.00 | 0.00 | 67 | 1016.7 |
| 20260505204617 | 62 | 226 | 1.0 | 6.0 | 0.00 | 0.00 | 0.00 | 68 | 1016.7 |
| 20260505204118 | 62 | 0 | 0.0 | 6.0 | 0.00 | 0.00 | 0.00 | 68 | 1016.8 |
| 20260505203124 | 61 | 265 | 2.0 | 10.0 | 0.00 | 0.00 | 0.00 | 69 | 1016.8 |
| 20260505202625 | 61 | 246 | 6.0 | 10.0 | 0.00 | 0.00 | 0.00 | 71 | 1016.8 |